Year,Month,Day,Hour,Minute,Value (Times are PST for temperature in C)
2014,04,12,00,00,7.10
2014,04,12,00,01,7.10
2014,04,12,00,02,7.10
2014,04,12,00,03,7.10
2014,04,12,00,04,7.00
2014,04,12,00,05,7.00
2014,04,12,00,06,7.00
2014,04,12,00,07,7.00
2014,04,12,00,08,7.00
2014,04,12,00,09,6.90
2014,04,12,00,10,6.90
2014,04,12,00,11,6.90
2014,04,12,00,12,6.90
2014,04,12,00,13,6.90
2014,04,12,00,14,6.90
2014,04,12,00,15,6.90
2014,04,12,00,16,6.80
2014,04,12,00,17,6.80
2014,04,12,00,18,6.80
2014,04,12,00,19,6.80
2014,04,12,00,20,6.80
2014,04,12,00,21,6.80
2014,04,12,00,22,6.80
2014,04,12,00,23,6.80
2014,04,12,00,24,6.80
2014,04,12,00,25,6.80
2014,04,12,00,26,6.80
2014,04,12,00,27,6.80
2014,04,12,00,28,6.80
2014,04,12,00,29,6.80
2014,04,12,00,30,6.80
2014,04,12,00,31,6.70
2014,04,12,00,32,6.70
2014,04,12,00,33,6.70
2014,04,12,00,34,6.70
2014,04,12,00,35,6.70
2014,04,12,00,36,6.70
2014,04,12,00,37,6.70
2014,04,12,00,38,6.70
2014,04,12,00,39,6.70
2014,04,12,00,40,6.70
2014,04,12,00,41,6.70
2014,04,12,00,42,6.80
2014,04,12,00,43,6.80
2014,04,12,00,44,6.80
2014,04,12,00,45,6.80
2014,04,12,00,46,6.80
2014,04,12,00,47,6.90
2014,04,12,00,48,7.00
2014,04,12,00,49,7.00
2014,04,12,00,50,7.00
2014,04,12,00,51,7.10
2014,04,12,00,52,7.10
2014,04,12,00,53,7.10
2014,04,12,00,54,7.20
2014,04,12,00,55,7.20
2014,04,12,00,56,7.20
2014,04,12,00,57,7.20
2014,04,12,00,58,7.20
2014,04,12,00,59,7.20
2014,04,12,01,00,7.20
2014,04,12,01,01,7.20
2014,04,12,01,02,7.20
2014,04,12,01,03,7.30
2014,04,12,01,04,7.30
2014,04,12,01,05,7.30
2014,04,12,01,06,7.30
2014,04,12,01,07,7.30
2014,04,12,01,08,7.30
2014,04,12,01,09,7.30
2014,04,12,01,10,7.30
2014,04,12,01,11,7.30
2014,04,12,01,12,7.30
2014,04,12,01,13,7.30
2014,04,12,01,14,7.30
2014,04,12,01,15,7.30
2014,04,12,01,16,7.30
2014,04,12,01,17,7.30
2014,04,12,01,18,7.30
2014,04,12,01,19,7.30
2014,04,12,01,20,7.30
2014,04,12,01,21,7.30
2014,04,12,01,22,7.30
2014,04,12,01,23,7.30
2014,04,12,01,24,7.30
2014,04,12,01,25,7.30
2014,04,12,01,26,7.30
2014,04,12,01,27,7.30
2014,04,12,01,28,7.30
2014,04,12,01,29,7.30
2014,04,12,01,30,7.30
2014,04,12,01,31,7.30
2014,04,12,01,32,7.30
2014,04,12,01,33,7.30
2014,04,12,01,34,7.30
2014,04,12,01,35,7.30
2014,04,12,01,36,7.30
2014,04,12,01,37,7.20
2014,04,12,01,38,7.20
2014,04,12,01,39,7.20
2014,04,12,01,40,7.20
2014,04,12,01,41,7.20
2014,04,12,01,42,7.20
2014,04,12,01,43,7.20
2014,04,12,01,44,7.20
2014,04,12,01,45,7.20
2014,04,12,01,46,7.20
2014,04,12,01,47,7.30
2014,04,12,01,48,7.30
2014,04,12,01,49,7.30
2014,04,12,01,50,7.30
2014,04,12,01,51,7.30
2014,04,12,01,52,7.30
2014,04,12,01,53,7.30
2014,04,12,01,54,7.30
2014,04,12,01,55,7.30
2014,04,12,01,56,7.30
2014,04,12,01,57,7.30
2014,04,12,01,58,7.30
2014,04,12,01,59,7.30
2014,04,12,02,00,7.30
2014,04,12,02,01,7.30
2014,04,12,02,02,7.30
2014,04,12,02,03,7.30
2014,04,12,02,04,7.30
2014,04,12,02,05,7.30
2014,04,12,02,06,7.30
2014,04,12,02,07,7.30
2014,04,12,02,08,7.30
2014,04,12,02,09,7.40
2014,04,12,02,10,7.40
2014,04,12,02,11,7.40
2014,04,12,02,12,7.40
2014,04,12,02,13,7.40
2014,04,12,02,14,7.40
2014,04,12,02,15,7.40
2014,04,12,02,16,7.40
2014,04,12,02,17,7.40
2014,04,12,02,18,7.40
2014,04,12,02,19,7.30
2014,04,12,02,20,7.30
2014,04,12,02,21,7.30
2014,04,12,02,22,7.30
2014,04,12,02,23,7.30
2014,04,12,02,24,7.30
2014,04,12,02,25,7.30
2014,04,12,02,26,7.30
2014,04,12,02,27,7.30
2014,04,12,02,28,7.30
2014,04,12,02,29,7.30
2014,04,12,02,30,7.30
2014,04,12,02,31,7.30
2014,04,12,02,32,7.30
2014,04,12,02,33,7.30
2014,04,12,02,34,7.30
2014,04,12,02,35,7.30
2014,04,12,02,36,7.30
2014,04,12,02,37,7.30
2014,04,12,02,38,7.30
2014,04,12,02,39,7.20
2014,04,12,02,40,7.20
2014,04,12,02,41,7.20
2014,04,12,02,42,7.20
2014,04,12,02,43,7.10
2014,04,12,02,44,7.10
2014,04,12,02,45,7.10
2014,04,12,02,46,7.10
2014,04,12,02,47,7.00
2014,04,12,02,48,7.00
2014,04,12,02,49,7.00
2014,04,12,02,50,7.00
2014,04,12,02,51,7.00
2014,04,12,02,52,7.00
2014,04,12,02,53,7.00
2014,04,12,02,54,6.90
2014,04,12,02,55,6.90
2014,04,12,02,56,6.90
2014,04,12,02,57,6.90
2014,04,12,02,58,6.90
2014,04,12,02,59,6.90
2014,04,12,03,00,6.90
2014,04,12,03,01,6.90
2014,04,12,03,02,6.90
2014,04,12,03,03,6.90
2014,04,12,03,04,6.90
2014,04,12,03,05,6.90
2014,04,12,03,06,6.90
2014,04,12,03,07,6.90
2014,04,12,03,08,6.90
2014,04,12,03,09,6.90
2014,04,12,03,10,6.90
2014,04,12,03,11,6.90
2014,04,12,03,12,6.90
2014,04,12,03,13,6.90
2014,04,12,03,14,6.90
2014,04,12,03,15,6.90
2014,04,12,03,16,6.90
2014,04,12,03,17,6.90
2014,04,12,03,18,6.90
2014,04,12,03,19,6.90
2014,04,12,03,20,6.90
2014,04,12,03,21,6.90
2014,04,12,03,22,6.90
2014,04,12,03,23,6.90
2014,04,12,03,24,6.90
2014,04,12,03,25,6.90
2014,04,12,03,26,6.90
2014,04,12,03,27,6.90
2014,04,12,03,28,6.90
2014,04,12,03,29,7.00
2014,04,12,03,30,7.00
2014,04,12,03,31,7.00
2014,04,12,03,32,7.00
2014,04,12,03,33,7.00
2014,04,12,03,34,7.00
2014,04,12,03,35,7.00
2014,04,12,03,36,7.00
2014,04,12,03,37,6.90
2014,04,12,03,38,6.90
2014,04,12,03,39,6.90
2014,04,12,03,40,6.90
2014,04,12,03,41,6.90
2014,04,12,03,42,6.90
2014,04,12,03,43,6.90
2014,04,12,03,44,6.90
2014,04,12,03,45,6.90
2014,04,12,03,46,6.90
2014,04,12,03,47,6.90
2014,04,12,03,48,6.90
2014,04,12,03,49,6.80
2014,04,12,03,50,6.80
2014,04,12,03,51,6.80
2014,04,12,03,52,6.80
2014,04,12,03,53,6.80
2014,04,12,03,54,6.80
2014,04,12,03,55,6.80
2014,04,12,03,56,6.80
2014,04,12,03,57,6.80
2014,04,12,03,58,6.80
2014,04,12,03,59,6.80
2014,04,12,04,00,6.80
2014,04,12,04,01,6.80
2014,04,12,04,02,6.80
2014,04,12,04,03,6.80
2014,04,12,04,04,6.80
2014,04,12,04,05,6.80
2014,04,12,04,06,6.80
2014,04,12,04,07,6.80
2014,04,12,04,08,6.80
2014,04,12,04,09,6.70
2014,04,12,04,10,6.70
2014,04,12,04,11,6.70
2014,04,12,04,12,6.70
2014,04,12,04,13,6.70
2014,04,12,04,14,6.70
2014,04,12,04,15,6.60
2014,04,12,04,16,6.60
2014,04,12,04,17,6.60
2014,04,12,04,18,6.60
2014,04,12,04,19,6.60
2014,04,12,04,20,6.60
2014,04,12,04,21,6.60
2014,04,12,04,22,6.60
2014,04,12,04,23,6.60
2014,04,12,04,24,6.50
2014,04,12,04,25,6.40
2014,04,12,04,26,6.40
2014,04,12,04,27,6.40
2014,04,12,04,28,6.40
2014,04,12,04,29,6.40
2014,04,12,04,30,6.40
2014,04,12,04,31,6.40
2014,04,12,04,32,6.40
2014,04,12,04,33,6.30
2014,04,12,04,34,6.30
2014,04,12,04,35,6.30
2014,04,12,04,36,6.30
2014,04,12,04,37,6.20
2014,04,12,04,38,6.20
2014,04,12,04,39,6.20
2014,04,12,04,40,6.20
2014,04,12,04,41,6.20
2014,04,12,04,42,6.20
2014,04,12,04,43,6.10
2014,04,12,04,44,6.10
2014,04,12,04,45,6.10
2014,04,12,04,46,6.10
2014,04,12,04,47,6.00
2014,04,12,04,48,6.00
2014,04,12,04,49,6.00
2014,04,12,04,50,5.90
2014,04,12,04,51,5.90
2014,04,12,04,52,5.90
2014,04,12,04,53,5.80
2014,04,12,04,54,5.80
2014,04,12,04,55,5.80
2014,04,12,04,56,5.70
2014,04,12,04,57,5.70
2014,04,12,04,58,5.70
2014,04,12,04,59,5.70
2014,04,12,05,00,5.70
2014,04,12,05,01,5.70
2014,04,12,05,02,5.60
2014,04,12,05,03,5.60
2014,04,12,05,04,5.60
2014,04,12,05,05,5.50
2014,04,12,05,06,5.50
2014,04,12,05,07,5.40
2014,04,12,05,08,5.40
2014,04,12,05,09,5.40
2014,04,12,05,10,5.30
2014,04,12,05,11,5.30
2014,04,12,05,12,5.30
2014,04,12,05,13,5.30
2014,04,12,05,14,5.30
2014,04,12,05,15,5.30
2014,04,12,05,16,5.20
2014,04,12,05,17,5.20
2014,04,12,05,18,5.20
2014,04,12,05,19,5.20
2014,04,12,05,20,5.20
2014,04,12,05,21,5.10
2014,04,12,05,22,5.10
2014,04,12,05,23,5.10
2014,04,12,05,24,5.10
2014,04,12,05,25,5.10
2014,04,12,05,26,5.10
2014,04,12,05,27,5.10
2014,04,12,05,28,5.10
2014,04,12,05,29,5.10
2014,04,12,05,30,5.10
2014,04,12,05,31,5.00
2014,04,12,05,32,4.90
2014,04,12,05,33,4.90
2014,04,12,05,34,4.90
2014,04,12,05,35,4.90
2014,04,12,05,36,4.90
2014,04,12,05,37,4.90
2014,04,12,05,38,4.90
2014,04,12,05,39,4.90
2014,04,12,05,40,4.90
2014,04,12,05,41,4.80
2014,04,12,05,42,4.80
2014,04,12,05,43,4.80
2014,04,12,05,44,4.80
2014,04,12,05,45,4.80
2014,04,12,05,46,4.80
2014,04,12,05,47,4.80
2014,04,12,05,48,4.80
2014,04,12,05,49,4.70
2014,04,12,05,50,4.70
2014,04,12,05,51,4.70
2014,04,12,05,52,4.70
2014,04,12,05,53,4.70
2014,04,12,05,54,4.60
2014,04,12,05,55,4.60
2014,04,12,05,56,4.60
2014,04,12,05,57,4.60
2014,04,12,05,58,4.60
2014,04,12,05,59,4.60
2014,04,12,06,00,4.60
2014,04,12,06,01,4.60
2014,04,12,06,02,4.50
2014,04,12,06,03,4.50
2014,04,12,06,04,4.50
2014,04,12,06,05,4.50
2014,04,12,06,06,4.50
2014,04,12,06,07,4.40
2014,04,12,06,08,4.40
2014,04,12,06,09,4.40
2014,04,12,06,10,4.40
2014,04,12,06,11,4.40
2014,04,12,06,12,4.40
2014,04,12,06,13,4.40
2014,04,12,06,14,4.30
2014,04,12,06,15,4.30
2014,04,12,06,16,4.30
2014,04,12,06,17,4.20
2014,04,12,06,18,4.20
2014,04,12,06,19,4.20
2014,04,12,06,20,4.20
2014,04,12,06,21,4.20
2014,04,12,06,22,4.20
2014,04,12,06,23,4.20
2014,04,12,06,24,4.20
2014,04,12,06,25,4.20
2014,04,12,06,26,4.10
2014,04,12,06,27,4.10
2014,04,12,06,28,4.10
2014,04,12,06,29,4.10
2014,04,12,06,30,4.10
2014,04,12,06,31,4.10
2014,04,12,06,32,4.00
2014,04,12,06,33,4.00
2014,04,12,06,34,4.00
2014,04,12,06,35,4.00
2014,04,12,06,36,3.90
2014,04,12,06,37,3.90
2014,04,12,06,38,3.90
2014,04,12,06,39,3.80
2014,04,12,06,40,3.80
2014,04,12,06,41,3.80
2014,04,12,06,42,3.80
2014,04,12,06,43,3.80
2014,04,12,06,44,3.80
2014,04,12,06,45,3.80
2014,04,12,06,46,3.80
2014,04,12,06,47,3.80
2014,04,12,06,48,3.80
2014,04,12,06,49,3.80
2014,04,12,06,50,3.80
2014,04,12,06,51,3.80
2014,04,12,06,52,3.70
2014,04,12,06,53,3.70
2014,04,12,06,54,3.70
2014,04,12,06,55,3.70
2014,04,12,06,56,3.70
2014,04,12,06,57,3.70
2014,04,12,06,58,3.60
2014,04,12,06,59,3.60
2014,04,12,07,00,3.60
2014,04,12,07,01,3.60
2014,04,12,07,02,3.60
2014,04,12,07,03,3.60
2014,04,12,07,04,3.60
2014,04,12,07,05,3.60
2014,04,12,07,06,3.60
2014,04,12,07,07,3.60
2014,04,12,07,08,3.60
2014,04,12,07,09,3.60
2014,04,12,07,10,3.70
2014,04,12,07,11,3.70
2014,04,12,07,12,3.70
2014,04,12,07,13,3.70
2014,04,12,07,14,3.80
2014,04,12,07,15,3.80
2014,04,12,07,16,3.80
2014,04,12,07,17,3.80
2014,04,12,07,18,3.80
2014,04,12,07,19,3.80
2014,04,12,07,20,3.80
2014,04,12,07,21,3.80
2014,04,12,07,22,3.80
2014,04,12,07,23,3.80
2014,04,12,07,24,3.80
2014,04,12,07,25,3.80
2014,04,12,07,26,3.80
2014,04,12,07,27,3.80
2014,04,12,07,28,3.80
2014,04,12,07,29,3.90
2014,04,12,07,30,3.90
2014,04,12,07,31,4.00
2014,04,12,07,32,4.00
2014,04,12,07,33,4.00
2014,04,12,07,34,4.00
2014,04,12,07,35,4.10
2014,04,12,07,36,4.10
2014,04,12,07,37,4.20
2014,04,12,07,38,4.20
2014,04,12,07,39,4.30
2014,04,12,07,40,4.40
2014,04,12,07,41,4.50
2014,04,12,07,42,4.60
2014,04,12,07,43,4.70
2014,04,12,07,44,4.80
2014,04,12,07,45,4.80
2014,04,12,07,46,4.90
2014,04,12,07,47,4.90
2014,04,12,07,48,4.90
2014,04,12,07,49,5.00
2014,04,12,07,50,5.10
2014,04,12,07,51,5.10
2014,04,12,07,52,5.10
2014,04,12,07,53,5.20
2014,04,12,07,54,5.30
2014,04,12,07,55,5.40
2014,04,12,07,56,5.50
2014,04,12,07,57,5.60
2014,04,12,07,58,5.70
2014,04,12,07,59,5.80
2014,04,12,08,00,6.00
2014,04,12,08,01,6.10
2014,04,12,08,02,6.20
2014,04,12,08,03,6.30
2014,04,12,08,04,6.40
2014,04,12,08,05,6.50
2014,04,12,08,06,6.60
2014,04,12,08,07,6.70
2014,04,12,08,08,6.80
2014,04,12,08,09,6.80
2014,04,12,08,10,6.90
2014,04,12,08,11,7.00
2014,04,12,08,12,7.00
2014,04,12,08,13,7.10
2014,04,12,08,14,7.20
2014,04,12,08,15,7.20
2014,04,12,08,16,7.30
2014,04,12,08,17,7.30
2014,04,12,08,18,7.40
2014,04,12,08,19,7.50
2014,04,12,08,20,7.60
2014,04,12,08,21,7.70
2014,04,12,08,22,7.70
2014,04,12,08,23,7.80
2014,04,12,08,24,7.90
2014,04,12,08,25,7.90
2014,04,12,08,26,8.00
2014,04,12,08,27,8.00
2014,04,12,08,28,8.10
2014,04,12,08,29,8.20
2014,04,12,08,30,8.20
2014,04,12,08,31,8.20
2014,04,12,08,32,8.20
2014,04,12,08,33,8.30
2014,04,12,08,34,8.30
2014,04,12,08,35,8.40
2014,04,12,08,36,8.40
2014,04,12,08,37,8.50
2014,04,12,08,38,8.50
2014,04,12,08,39,8.60
2014,04,12,08,40,8.60
2014,04,12,08,41,8.70
2014,04,12,08,42,8.70
2014,04,12,08,43,8.70
2014,04,12,08,44,8.70
2014,04,12,08,45,8.70
2014,04,12,08,46,8.70
2014,04,12,08,47,8.70
2014,04,12,08,48,8.80
2014,04,12,08,49,8.80
2014,04,12,08,50,8.80
2014,04,12,08,51,8.80
2014,04,12,08,52,8.80
2014,04,12,08,53,8.90
2014,04,12,08,54,8.90
2014,04,12,08,55,9.00
2014,04,12,08,56,9.00
2014,04,12,08,57,9.00
2014,04,12,08,58,9.10
2014,04,12,08,59,9.10
2014,04,12,09,00,9.20
2014,04,12,09,01,9.20
2014,04,12,09,02,9.20
2014,04,12,09,03,9.20
2014,04,12,09,04,9.20
2014,04,12,09,05,9.20
2014,04,12,09,06,9.30
2014,04,12,09,07,9.30
2014,04,12,09,08,9.40
2014,04,12,09,09,9.40
2014,04,12,09,10,9.50
2014,04,12,09,11,9.50
2014,04,12,09,12,9.60
2014,04,12,09,13,9.70
2014,04,12,09,14,9.70
2014,04,12,09,15,9.70
2014,04,12,09,16,9.70
2014,04,12,09,17,9.80
2014,04,12,09,18,9.90
2014,04,12,09,19,9.90
2014,04,12,09,20,9.90
2014,04,12,09,21,9.90
2014,04,12,09,22,9.90
2014,04,12,09,23,9.90
2014,04,12,09,24,9.90
2014,04,12,09,25,9.90
2014,04,12,09,26,9.90
2014,04,12,09,27,9.90
2014,04,12,09,28,9.90
2014,04,12,09,29,9.90
2014,04,12,09,30,10.00
2014,04,12,09,31,10.10
2014,04,12,09,32,10.10
2014,04,12,09,33,10.20
2014,04,12,09,34,10.20
2014,04,12,09,35,10.30
2014,04,12,09,36,10.30
2014,04,12,09,37,10.40
2014,04,12,09,38,10.40
2014,04,12,09,39,10.40
2014,04,12,09,40,10.40
2014,04,12,09,41,10.40
2014,04,12,09,42,10.40
2014,04,12,09,43,10.40
2014,04,12,09,44,10.40
2014,04,12,09,45,10.40
2014,04,12,09,46,10.40
2014,04,12,09,47,10.40
2014,04,12,09,48,10.40
2014,04,12,09,49,10.40
2014,04,12,09,50,10.40
2014,04,12,09,51,10.40
2014,04,12,09,52,10.40
2014,04,12,09,53,10.40
2014,04,12,09,54,10.60
2014,04,12,09,55,10.60
2014,04,12,09,56,10.60
2014,04,12,09,57,10.60
2014,04,12,09,58,10.60
2014,04,12,09,59,10.60
2014,04,12,10,00,10.60
2014,04,12,10,01,10.60
2014,04,12,10,02,10.60
2014,04,12,10,03,10.60
2014,04,12,10,04,10.60
2014,04,12,10,05,10.60
2014,04,12,10,06,10.60
2014,04,12,10,07,10.70
2014,04,12,10,08,10.80
2014,04,12,10,09,10.80
2014,04,12,10,10,10.90
2014,04,12,10,11,10.90
2014,04,12,10,12,10.80
2014,04,12,10,13,10.80
2014,04,12,10,14,10.80
2014,04,12,10,15,10.80
2014,04,12,10,16,10.80
2014,04,12,10,17,10.80
2014,04,12,10,18,10.80
2014,04,12,10,19,10.90
2014,04,12,10,20,10.90
2014,04,12,10,21,10.80
2014,04,12,10,22,10.80
2014,04,12,10,23,10.90
2014,04,12,10,24,10.90
2014,04,12,10,25,10.90
2014,04,12,10,26,10.90
2014,04,12,10,27,10.90
2014,04,12,10,28,11.00
2014,04,12,10,29,11.10
2014,04,12,10,30,11.10
2014,04,12,10,31,11.10
2014,04,12,10,32,11.10
2014,04,12,10,33,11.00
2014,04,12,10,34,11.00
2014,04,12,10,35,11.10
2014,04,12,10,36,11.10
2014,04,12,10,37,11.10
2014,04,12,10,38,11.10
2014,04,12,10,39,11.10
2014,04,12,10,40,11.20
2014,04,12,10,41,11.30
2014,04,12,10,42,11.30
2014,04,12,10,43,11.40
2014,04,12,10,44,11.40
2014,04,12,10,45,11.40
2014,04,12,10,46,11.40
2014,04,12,10,47,11.50
2014,04,12,10,48,11.60
2014,04,12,10,49,11.60
2014,04,12,10,50,11.60
2014,04,12,10,51,11.60
2014,04,12,10,52,11.70
2014,04,12,10,53,11.80
2014,04,12,10,54,11.90
2014,04,12,10,55,12.00
2014,04,12,10,56,12.00
2014,04,12,10,57,12.00
2014,04,12,10,58,12.10
2014,04,12,10,59,12.20
2014,04,12,11,00,12.20
2014,04,12,11,01,12.20
2014,04,12,11,02,12.20
2014,04,12,11,03,12.10
2014,04,12,11,04,12.10
2014,04,12,11,05,12.10
2014,04,12,11,06,12.00
2014,04,12,11,07,12.10
2014,04,12,11,08,12.10
2014,04,12,11,09,12.10
2014,04,12,11,10,12.20
2014,04,12,11,11,12.20
2014,04,12,11,12,12.30
2014,04,12,11,13,12.30
2014,04,12,11,14,12.40
2014,04,12,11,15,12.40
2014,04,12,11,16,12.40
2014,04,12,11,17,12.50
2014,04,12,11,18,12.40
2014,04,12,11,19,12.40
2014,04,12,11,20,12.30
2014,04,12,11,21,12.30
2014,04,12,11,22,12.30
2014,04,12,11,23,12.20
2014,04,12,11,24,12.20
2014,04,12,11,25,12.20
2014,04,12,11,26,12.20
2014,04,12,11,27,12.20
2014,04,12,11,28,12.20
2014,04,12,11,29,12.20
2014,04,12,11,30,12.20
2014,04,12,11,31,12.20
2014,04,12,11,32,12.20
2014,04,12,11,33,12.20
2014,04,12,11,34,12.30
2014,04,12,11,35,12.30
2014,04,12,11,36,12.30
2014,04,12,11,37,12.40
2014,04,12,11,38,12.40
2014,04,12,11,39,12.40
2014,04,12,11,40,12.40
2014,04,12,11,41,12.40
2014,04,12,11,42,12.40
2014,04,12,11,43,12.40
2014,04,12,11,44,12.40
2014,04,12,11,45,12.50
2014,04,12,11,46,12.50
2014,04,12,11,47,12.50
2014,04,12,11,48,12.50
2014,04,12,11,49,12.50
2014,04,12,11,50,12.50
2014,04,12,11,51,12.50
2014,04,12,11,52,12.50
2014,04,12,11,53,12.50
2014,04,12,11,54,12.50
2014,04,12,11,55,12.50
2014,04,12,11,56,12.40
2014,04,12,11,57,12.40
2014,04,12,11,58,12.40
2014,04,12,11,59,12.30
2014,04,12,12,00,12.30
2014,04,12,12,01,12.30
2014,04,12,12,02,12.30
2014,04,12,12,03,12.40
2014,04,12,12,04,12.40
2014,04,12,12,05,12.30
2014,04,12,12,06,12.30
2014,04,12,12,07,12.30
2014,04,12,12,08,12.30
2014,04,12,12,09,12.30
2014,04,12,12,10,12.30
2014,04,12,12,11,12.30
2014,04,12,12,12,12.40
2014,04,12,12,13,12.40
2014,04,12,12,14,12.50
2014,04,12,12,15,12.50
2014,04,12,12,16,12.60
2014,04,12,12,17,12.60
2014,04,12,12,18,12.70
2014,04,12,12,19,12.80
2014,04,12,12,20,12.90
2014,04,12,12,21,12.90
2014,04,12,12,22,13.00
2014,04,12,12,23,12.90
2014,04,12,12,24,12.90
2014,04,12,12,25,12.90
2014,04,12,12,26,12.80
2014,04,12,12,27,12.80
2014,04,12,12,28,12.80
2014,04,12,12,29,12.80
2014,04,12,12,30,12.80
2014,04,12,12,31,12.80
2014,04,12,12,32,12.80
2014,04,12,12,33,12.80
2014,04,12,12,34,12.80
2014,04,12,12,35,12.90
2014,04,12,12,36,13.00
2014,04,12,12,37,13.00
2014,04,12,12,38,13.10
2014,04,12,12,39,13.30
2014,04,12,12,40,13.30
2014,04,12,12,41,13.30
2014,04,12,12,42,13.40
2014,04,12,12,43,13.60
2014,04,12,12,44,13.60
2014,04,12,12,45,13.70
2014,04,12,12,46,13.70
2014,04,12,12,47,13.60
2014,04,12,12,48,13.60
2014,04,12,12,49,13.50
2014,04,12,12,50,13.50
2014,04,12,12,51,13.40
2014,04,12,12,52,13.50
2014,04,12,12,53,13.60
2014,04,12,12,54,13.60
2014,04,12,12,55,13.70
2014,04,12,12,56,13.70
2014,04,12,12,57,13.70
2014,04,12,12,58,13.80
2014,04,12,12,59,13.70
2014,04,12,13,00,13.80
2014,04,12,13,01,13.80
2014,04,12,13,02,13.90
2014,04,12,13,03,13.90
2014,04,12,13,04,13.90
2014,04,12,13,05,13.90
2014,04,12,13,06,14.00
2014,04,12,13,07,14.00
2014,04,12,13,08,14.00
2014,04,12,13,09,14.10
2014,04,12,13,10,14.10
2014,04,12,13,11,14.10
2014,04,12,13,12,14.20
2014,04,12,13,13,14.20
2014,04,12,13,14,14.20
2014,04,12,13,15,14.20
2014,04,12,13,16,14.40
2014,04,12,13,17,14.40
2014,04,12,13,18,14.40
2014,04,12,13,19,14.40
2014,04,12,13,20,14.40
2014,04,12,13,21,14.40
2014,04,12,13,22,14.40
2014,04,12,13,23,14.40
2014,04,12,13,24,14.40
2014,04,12,13,25,14.50
2014,04,12,13,26,14.50
2014,04,12,13,27,14.50
2014,04,12,13,28,14.50
2014,04,12,13,29,14.50
2014,04,12,13,30,14.50
2014,04,12,13,31,14.40
2014,04,12,13,32,14.30
2014,04,12,13,33,14.30
2014,04,12,13,34,14.20
2014,04,12,13,35,14.20
2014,04,12,13,36,14.20
2014,04,12,13,37,14.20
2014,04,12,13,38,14.20
2014,04,12,13,39,14.20
2014,04,12,13,40,14.20
2014,04,12,13,41,14.20
2014,04,12,13,42,14.30
2014,04,12,13,43,14.40
2014,04,12,13,44,14.50
2014,04,12,13,45,14.60
2014,04,12,13,46,14.70
2014,04,12,13,47,14.80
2014,04,12,13,48,14.80
2014,04,12,13,49,14.80
2014,04,12,13,50,14.80
2014,04,12,13,51,14.80
2014,04,12,13,52,14.80
2014,04,12,13,53,14.80
2014,04,12,13,54,14.70
2014,04,12,13,55,14.70
2014,04,12,13,56,14.80
2014,04,12,13,57,14.80
2014,04,12,13,58,14.80
2014,04,12,13,59,14.80
2014,04,12,14,00,14.80
2014,04,12,14,01,14.80
2014,04,12,14,02,14.70
2014,04,12,14,03,14.70
2014,04,12,14,04,14.80
2014,04,12,14,05,14.80
2014,04,12,14,06,14.90
2014,04,12,14,07,15.00
2014,04,12,14,08,15.10
2014,04,12,14,09,15.20
2014,04,12,14,10,15.30
2014,04,12,14,11,15.30
2014,04,12,14,12,15.30
2014,04,12,14,13,15.30
2014,04,12,14,14,15.30
2014,04,12,14,15,15.30
2014,04,12,14,16,15.30
2014,04,12,14,17,15.30
2014,04,12,14,18,15.30
2014,04,12,14,19,15.30
2014,04,12,14,20,15.30
2014,04,12,14,21,15.30
2014,04,12,14,22,15.40
2014,04,12,14,23,15.50
2014,04,12,14,24,15.50
2014,04,12,14,25,15.60
2014,04,12,14,26,15.70
2014,04,12,14,27,15.80
2014,04,12,14,28,15.80
2014,04,12,14,29,15.70
2014,04,12,14,30,15.70
2014,04,12,14,31,15.60
2014,04,12,14,32,15.50
2014,04,12,14,33,15.30
2014,04,12,14,34,15.20
2014,04,12,14,35,15.10
2014,04,12,14,36,15.10
2014,04,12,14,37,15.10
2014,04,12,14,38,15.10
2014,04,12,14,39,15.10
2014,04,12,14,40,15.10
2014,04,12,14,41,15.10
2014,04,12,14,42,15.20
2014,04,12,14,43,15.20
2014,04,12,14,44,15.20
2014,04,12,14,45,15.20
2014,04,12,14,46,15.30
2014,04,12,14,47,15.30
2014,04,12,14,48,15.30
2014,04,12,14,49,15.40
2014,04,12,14,50,15.30
2014,04,12,14,51,15.30
2014,04,12,14,52,15.30
2014,04,12,14,53,15.30
2014,04,12,14,54,15.30
2014,04,12,14,55,15.20
2014,04,12,14,56,15.10
2014,04,12,14,57,15.10
2014,04,12,14,58,15.10
2014,04,12,14,59,15.10
2014,04,12,15,00,15.10
2014,04,12,15,01,15.20
2014,04,12,15,02,15.20
2014,04,12,15,03,15.30
2014,04,12,15,04,15.30
2014,04,12,15,05,15.30
2014,04,12,15,06,15.30
2014,04,12,15,07,15.40
2014,04,12,15,08,15.40
2014,04,12,15,09,15.40
2014,04,12,15,10,15.40
2014,04,12,15,11,15.40
2014,04,12,15,12,15.40
2014,04,12,15,13,15.40
2014,04,12,15,14,15.40
2014,04,12,15,15,15.40
2014,04,12,15,16,15.40
2014,04,12,15,17,15.50
2014,04,12,15,18,15.50
2014,04,12,15,19,15.50
2014,04,12,15,20,15.50
2014,04,12,15,21,15.40
2014,04,12,15,22,15.40
2014,04,12,15,23,15.40
2014,04,12,15,24,15.40
2014,04,12,15,25,15.30
2014,04,12,15,26,15.30
2014,04,12,15,27,15.30
2014,04,12,15,28,15.30
2014,04,12,15,29,15.40
2014,04,12,15,30,15.40
2014,04,12,15,31,15.40
2014,04,12,15,32,15.40
2014,04,12,15,33,15.40
2014,04,12,15,34,15.50
2014,04,12,15,35,15.50
2014,04,12,15,36,15.50
2014,04,12,15,37,15.50
2014,04,12,15,38,15.60
2014,04,12,15,39,15.60
2014,04,12,15,40,15.60
2014,04,12,15,41,15.50
2014,04,12,15,42,15.50
2014,04,12,15,43,15.50
2014,04,12,15,44,15.50
2014,04,12,15,45,15.40
2014,04,12,15,46,15.40
2014,04,12,15,47,15.50
2014,04,12,15,48,15.40
2014,04,12,15,49,15.30
2014,04,12,15,50,15.20
2014,04,12,15,51,15.10
2014,04,12,15,52,15.00
2014,04,12,15,53,15.00
2014,04,12,15,54,15.00
2014,04,12,15,55,15.10
2014,04,12,15,56,15.20
2014,04,12,15,57,15.30
2014,04,12,15,58,15.30
2014,04,12,15,59,15.40
2014,04,12,16,00,15.50
2014,04,12,16,01,15.50
2014,04,12,16,02,15.60
2014,04,12,16,03,15.60
2014,04,12,16,04,15.60
2014,04,12,16,05,15.60
2014,04,12,16,06,15.60
2014,04,12,16,07,15.60
2014,04,12,16,08,15.50
2014,04,12,16,09,15.50
2014,04,12,16,10,15.50
2014,04,12,16,11,15.50
2014,04,12,16,12,15.40
2014,04,12,16,13,15.40
2014,04,12,16,14,15.30
2014,04,12,16,15,15.30
2014,04,12,16,16,15.40
2014,04,12,16,17,15.40
2014,04,12,16,18,15.40
2014,04,12,16,19,15.50
2014,04,12,16,20,15.60
2014,04,12,16,21,15.70
2014,04,12,16,22,15.80
2014,04,12,16,23,15.80
2014,04,12,16,24,16.00
2014,04,12,16,25,16.10
2014,04,12,16,26,16.10
2014,04,12,16,27,16.20
2014,04,12,16,28,16.20
2014,04,12,16,29,16.20
2014,04,12,16,30,16.20
2014,04,12,16,31,16.30
2014,04,12,16,32,16.30
2014,04,12,16,33,16.40
2014,04,12,16,34,16.50
2014,04,12,16,35,16.60
2014,04,12,16,36,16.70
2014,04,12,16,37,16.70
2014,04,12,16,38,16.80
2014,04,12,16,39,16.90
2014,04,12,16,40,16.90
2014,04,12,16,41,17.00
2014,04,12,16,42,17.00
2014,04,12,16,43,17.00
2014,04,12,16,44,17.00
2014,04,12,16,45,17.10
2014,04,12,16,46,17.20
2014,04,12,16,47,17.20
2014,04,12,16,48,17.30
2014,04,12,16,49,17.30
2014,04,12,16,50,17.30
2014,04,12,16,51,17.30
2014,04,12,16,52,17.30
2014,04,12,16,53,17.30
2014,04,12,16,54,17.40
2014,04,12,16,55,17.40
2014,04,12,16,56,17.40
2014,04,12,16,57,17.50
2014,04,12,16,58,17.50
2014,04,12,16,59,17.50
2014,04,12,17,00,17.60
2014,04,12,17,01,17.60
2014,04,12,17,02,17.60
2014,04,12,17,03,17.60
2014,04,12,17,04,17.60
2014,04,12,17,05,17.60
2014,04,12,17,06,17.60
2014,04,12,17,07,17.60
2014,04,12,17,08,17.50
2014,04,12,17,09,17.40
2014,04,12,17,10,17.40
2014,04,12,17,11,17.40
2014,04,12,17,12,17.50
2014,04,12,17,13,17.40
2014,04,12,17,14,17.40
2014,04,12,17,15,17.40
2014,04,12,17,16,17.30
2014,04,12,17,17,17.30
2014,04,12,17,18,17.20
2014,04,12,17,19,17.20
2014,04,12,17,20,17.20
2014,04,12,17,21,17.20
2014,04,12,17,22,17.20
2014,04,12,17,23,17.20
2014,04,12,17,24,17.30
2014,04,12,17,25,17.30
2014,04,12,17,26,17.30
2014,04,12,17,27,17.30
2014,04,12,17,28,17.30
2014,04,12,17,29,17.20
2014,04,12,17,30,17.10
2014,04,12,17,31,17.10
2014,04,12,17,32,17.10
2014,04,12,17,33,17.10
2014,04,12,17,34,17.10
2014,04,12,17,35,17.10
2014,04,12,17,36,17.10
2014,04,12,17,37,17.20
2014,04,12,17,38,17.20
2014,04,12,17,39,17.30
2014,04,12,17,40,17.30
2014,04,12,17,41,17.30
2014,04,12,17,42,17.30
2014,04,12,17,43,17.30
2014,04,12,17,44,17.30